Content
SEND FEEDBACK

Daily
Averages
Monthly
Summary
United States of America

EMPORIA, VIRGINIA


Home > North America > United States > Virginia
Elevation: 109 feet     Latitude: 36 42N     Longitude: 077 30W

WEATHER
 
SELECT A DAY
Number of Records: 300,394;   Date Range: 2/28/02 - 10/18/14
 
SHARE

PRINT THIS DATA

[ ← Previous Day ]
WEATHER ALMANAC - JANUARY 23, 2013
[ Next Day → ]
[ °C ]   °F
Weather ElementAverageHighLow
Temperature27.6 °F35.6 °F (2:55 pm)15.8 °F (5:55 am)
Dewpoint8.5 °F19.4 °F (9:15 pm)1.4 °F (1:55 pm)
Humidity47.1 %79 % (6:55 am)24 % (2:55 pm)
Barometer30.28 in30.39 in (9:15 am)30.09 in (11:55 pm)
Wind Speed3 mph10.4 mph (12:55 pm)
Wind Gust16.1 mph (1:55 pm)
Weather ElementAverage
Visibility10 mi
Wind DirectionESE (127.6 °)

Weather ElementTotal
Precipitation---
Heating Degree Days39.3 (Base 65)
Averaged from 67 records on January 23, 2013
WEATHER CONDITIONS BREAKOUT
WIND DIRECTION BREAKOUT
WEATHER BY HOUR - JANUARY 23, 2013
[ °C ]   °F
Local TimeTemperatureDewpointHumidityBarometerVisibilityWind DirectionWind SpeedGust SpeedPrecipitationEventsConditions
12:35 AM19.4 °F6.8 °F58 %30.30 in10.0 miNW (310°)6.9 mphClear
12:55 AM21.2 °F5.0 °F50 %30.31 in10.0 miWNW (290°)3.5 mphClear
1:15 AM21.2 °F5.0 °F50 %30.31 in10.0 miWNW (300°)3.5 mphClear
1:35 AM19.4 °F5.0 °F54 %30.32 in10.0 miWNW (300°)4.6 mphClear
1:55 AM21.2 °F5.0 °F50 %30.32 in10.0 miWNW (300°)5.8 mphClear
2:15 AM19.4 °F5.0 °F54 %30.32 in10.0 miCalmClear
2:35 AM19.4 °F5.0 °F54 %30.33 in10.0 miNNW (330°)4.6 mphClear
2:55 AM19.4 °F8.6 °F63 %30.33 in10.0 miNNW (340°)3.5 mphMostly Cloudy
3:15 AM21.2 °F8.6 °F58 %30.33 in10.0 miNorth (350°)4.6 mphOvercast
3:35 AM21.2 °F8.6 °F58 %30.34 in10.0 miNNW (340°)4.6 mphOvercast
3:55 AM21.2 °F6.8 °F54 %30.34 in10.0 miNorth (350°)5.8 mphOvercast
4:15 AM21.2 °F8.6 °F58 %30.34 in10.0 miNorth (350°)3.5 mphOvercast
4:35 AM21.2 °F6.8 °F54 %30.34 in10.0 miCalmOvercast
4:55 AM21.2 °F6.8 °F54 %30.34 in10.0 miCalmMostly Cloudy
5:15 AM19.4 °F8.6 °F63 %30.34 in10.0 miCalmClear
5:35 AM17.6 °F8.6 °F68 %30.35 in10.0 miCalmClear
5:55 AM15.8 °F8.6 °F73 %30.35 in10.0 miCalmClear
6:15 AM17.6 °F10.4 °F73 %30.36 in10.0 miCalmClear
6:35 AM17.6 °F10.4 °F73 %30.37 inCalmClear
6:55 AM15.8 °F10.4 °F79 %30.37 in10.0 miCalmClear
8:15 AM19.4 °F10.4 °F68 %30.38 inCalm
8:55 AM23.0 °F8.6 °F54 %30.38 in10.0 miCalmClear
9:15 AM23.0 °F8.6 °F54 %30.39 in10.0 miCalmClear
9:35 AM24.8 °F6.8 °F46 %30.38 in10.0 miCalmClear
9:55 AM26.6 °F6.8 °F43 %30.39 in10.0 miCalmClear
10:15 AM26.6 °F3.2 °F37 %30.39 in10.0 miCalmClear
10:35 AM26.6 °F3.2 °F37 %30.39 in10.0 miWest (260°)3.5 mphClear
10:55 AM28.4 °F3.2 °F34 %30.38 in10.0 miSW (220°)6.9 mphClear
11:15 AM28.4 °F5.0 °F37 %30.38 in10.0 miWest (260°)4.6 mphClear
11:35 AM28.4 °F3.2 °F34 %30.36 in10.0 miSW (230°)4.6 mphClear
11:55 AM30.2 °F3.2 °F32 %30.34 in10.0 miWSW (240°)8.1 mphClear
12:15 PM30.2 °F3.2 °F32 %30.33 in10.0 miSW (220°)4.6 mphClear
12:35 PM32.0 °F5.0 °F32 %30.30 in10.0 miSSW (210°)4.6 mphClear
12:55 PM32.0 °F3.2 °F30 %30.29 in10.0 miWest (260°)10.4 mphClear
1:15 PM32.0 °F3.2 °F30 %30.28 in10.0 miWest (260°)10.4 mphClear
1:35 PM33.8 °F3.2 °F28 %30.27 in10.0 miSSW (210°)10.4 mphClear
1:55 PM33.8 °F1.4 °F25 %30.25 in10.0 miWest (260°)8.1 mph16.1 mphClear
2:15 PM33.8 °F1.4 °F25 %30.25 in10.0 miWNW (290°)10.4 mphClear
2:35 PM33.8 °F1.4 °F25 %30.24 in10.0 miWSW (250°)6.9 mphClear
2:55 PM35.6 °F1.4 °F24 %30.24 in10.0 miWSW (250°)5.8 mphMostly Cloudy
3:15 PM35.6 °F1.4 °F24 %30.24 in10.0 miWest (280°)9.2 mphMostly Cloudy
3:35 PM35.6 °F1.4 °F24 %30.24 in10.0 miWest (270°)6.9 mphMostly Cloudy
3:55 PM33.8 °F1.4 °F25 %30.23 in10.0 miSW (230°)6.9 mphOvercast
4:15 PM33.8 °F3.2 °F28 %30.23 in10.0 miWest (270°)5.8 mphScattered Clouds
4:35 PM33.8 °F3.2 °F28 %30.23 in10.0 miWest (280°)4.6 mphClear
4:55 PM33.8 °F3.2 °F28 %30.23 in10.0 miCalmClear
5:15 PM32.0 °F5.0 °F32 %30.23 in10.0 miCalmMostly Cloudy
5:35 PM32.0 °F10.4 °F41 %30.23 in10.0 miCalmOvercast
5:55 PM32.0 °F12.2 °F44 %30.23 in10.0 miCalmOvercast
6:15 PM32.0 °F12.2 °F44 %30.23 in10.0 miCalmOvercast
6:35 PM32.0 °F12.2 °F44 %30.22 in10.0 miCalmOvercast
6:55 PM32.0 °F12.2 °F44 %30.21 in10.0 miCalmOvercast
7:15 PM32.0 °F14.0 °F48 %30.20 in10.0 miCalmOvercast
7:35 PM32.0 °F17.6 °F55 %30.20 in10.0 miCalmOvercast
7:55 PM32.0 °F17.6 °F55 %30.19 in10.0 miCalmOvercast
8:15 PM32.0 °F15.8 °F51 %30.19 in10.0 miCalmOvercast
8:35 PM32.0 °F14.0 °F48 %30.18 in10.0 miCalmOvercast
8:55 PM32.0 °F15.8 °F51 %30.18 in10.0 miCalmOvercast
9:15 PM32.0 °F19.4 °F60 %30.17 in10.0 miCalmOvercast
9:35 PM32.0 °F17.6 °F55 %30.17 in10.0 miENE (60°)3.5 mphOvercast
9:55 PM32.0 °F17.6 °F55 %30.16 in10.0 miCalmOvercast
10:15 PM32.0 °F17.6 °F55 %30.15 in10.0 miCalmOvercast
10:35 PM32.0 °F17.6 °F55 %30.14 in10.0 miCalmOvercast
10:55 PM32.0 °F19.4 °F60 %30.12 in10.0 miENE (60°)4.6 mphOvercast
11:15 PM32.0 °F19.4 °F60 %30.12 in10.0 miCalmOvercast
11:35 PM32.0 °F19.4 °F60 %30.10 in10.0 miENE (60°)3.5 mphOvercast
11:55 PM32.0 °F17.6 °F55 %30.09 in10.0 miENE (60°)3.5 mphMostly Cloudy
Hourly data recorded from KEMV, located miles away from Emporia, Virginia







STORIES FROM OUR PARTNERS